Weather History for Kansas City, MO

Change the Weather History Date:

Wednesday, April 10, 2013

  Actual Average Record
Temperature  
Mean Temperature 47 °F -  
Max Temperature 50 °F 62 °F 87 °F (2011)
Min Temperature 39 °F 43 °F 32 °F (1997)
Degree Days  
Heating Degree Days 18    
Moisture  
Dew Point 42 °F    
Average Humidity 87    
Maximum Humidity 94    
Minimum Humidity 81    
Precipitation  
Precipitation 0.62 in - - ()
Sea Level Pressure  
Sea Level Pressure 29.82 in    
Wind  
Wind Speed 10 mph (NW)    
Max Wind Speed 21 mph    
Max Gust Speed 34 mph    
Visibility 8 miles    
Events Rain , Thunderstorm    
Averages and records for this station are not official NWS values.
T = Trace of Precipitation, MM = Missing Value Source: NWS Daily Summary

Daily Weather History Graph

Daily Weather History Graph

Search for Another Location

Airport:

Trip Planner

Search our weather history database for the weather conditions in past years. The results will help you decide how hot, cold, wet, or windy it might be!

Date:

Astronomy

Apr. 10, 2013 Rise Set
Actual Time 6:48 AM CDT 7:51 PM CDT
Civil Twilight 6:21 AM CDT 8:18 PM CDT
Nautical Twilight 5:48 AM CDT 8:51 PM CDT
Astronomical Twilight 5:14 AM CDT 9:25 PM CDT
Moon 6:45 AM CDT (4/10) 8:27 PM CDT (4/10)
Length of Visible Light 13h 57m
Length of Day
13h 02m
New Moon, 0% of the Moon is Illuminated
Apr 10
New Moon
Apr 18
First Quarter
Apr 25
Full
May 2
Last Quarter
May 9
New

Hourly Weather History & Observations

Time (CDT) Temp. Windchill Dew Point Humidity Pressure Visibility Wind Dir Wind Speed Gust Speed Precip Events Conditions
12:13 AM 53.6 °F - 51.8 °F 94% 29.74 in 7.0 mi NW 12.7 mph 17.3 mph 0.01 in Rain , Thunderstorm Thunderstorms and Rain
12:35 AM 53.6 °F - 50.0 °F 88% 29.78 in 5.0 mi WNW 11.5 mph 17.3 mph 0.06 in Rain , Thunderstorm Thunderstorms and Rain
12:54 AM 50.0 °F - 46.0 °F 86% 29.84 in 10.0 mi West 16.1 mph 29.9 mph 0.06 in Rain , Thunderstorm Light Rain
1:03 AM 48.2 °F - 46.4 °F 93% 29.84 in 6.0 mi WNW 19.6 mph 27.6 mph 0.02 in Rain , Thunderstorm Thunderstorms and Rain
1:24 AM 46.4 °F 38.7 °F 42.8 °F 87% 29.85 in 6.0 mi NW 20.7 mph 34.5 mph 0.04 in Rain Light Rain
1:36 AM 46.4 °F 43.5 °F 42.8 °F 87% 29.86 in 10.0 mi WNW 5.8 mph 17.3 mph 0.04 in Rain , Thunderstorm Light Rain
1:54 AM 46.0 °F 43.9 °F 42.1 °F 86% 29.84 in 2.5 mi North 4.6 mph - 0.17 in Rain , Thunderstorm Heavy Thunderstorms and Rain
2:03 AM 46.4 °F 45.2 °F 42.8 °F 87% 29.85 in 6.0 mi NNE 3.5 mph - 0.01 in Rain , Thunderstorm Light Thunderstorms and Rain
2:43 AM 48.2 °F - 44.6 °F 87% 29.76 in 10.0 mi NNE 5.8 mph - 0.01 in Rain Light Rain
2:54 AM 48.9 °F - 46.0 °F 90% 29.74 in 10.0 mi ENE 6.9 mph - 0.01 in   Overcast
3:11 AM 50.0 °F - 46.4 °F 87% 29.75 in 10.0 mi ENE 8.1 mph - N/A   Mostly Cloudy
3:28 AM 50.0 °F - 46.4 °F 87% 29.74 in 10.0 mi NE 5.8 mph - N/A   Overcast
3:49 AM 50.0 °F - 46.4 °F 87% 29.74 in 10.0 mi East 3.5 mph - N/A Thunderstorm Overcast
3:54 AM 50.0 °F - 48.0 °F 93% 29.76 in 9.0 mi Calm Calm - 0.00 in Rain , Thunderstorm Light Rain
4:14 AM 50.0 °F - 46.4 °F 87% 29.77 in 7.0 mi WNW 4.6 mph - 0.02 in Rain , Thunderstorm Light Rain
4:49 AM 46.4 °F 40.7 °F 44.6 °F 93% 29.75 in 2.5 mi NNE 12.7 mph - 0.13 in Rain , Thunderstorm Heavy Thunderstorms and Rain
4:54 AM 48.0 °F - 45.0 °F 89% 29.83 in 3.0 mi Variable 6.9 mph 17.3 mph 0.14 in Rain , Thunderstorm Thunderstorms and Rain
5:04 AM 48.2 °F - 44.6 °F 87% 29.83 in 7.0 mi West 11.5 mph - 0.01 in Rain , Thunderstorm Light Thunderstorms and Rain
5:24 AM 46.4 °F 41.5 °F 44.6 °F 93% 29.84 in 10.0 mi West 10.4 mph - 0.01 in   Overcast
5:54 AM 46.0 °F 42.5 °F 42.1 °F 86% 29.85 in 10.0 mi WNW 6.9 mph - 0.01 in Rain Light Rain
6:54 AM 45.0 °F 40.6 °F 41.0 °F 86% 29.88 in 10.0 mi WNW 8.1 mph - 0.00 in   Overcast
7:54 AM 45.0 °F 40.1 °F 41.0 °F 86% 29.86 in 10.0 mi NNW 9.2 mph - N/A   Overcast
8:54 AM 43.0 °F 37.7 °F 39.0 °F 86% 29.89 in 10.0 mi WNW 9.2 mph - N/A   Overcast
9:01 AM 42.8 °F 38.6 °F 39.2 °F 87% 29.90 in 10.0 mi WNW 6.9 mph - N/A   Overcast
9:54 AM 42.1 °F 36.6 °F 37.9 °F 85% 29.83 in 7.0 mi NNW 9.2 mph - 0.00 in Rain Light Rain
10:33 AM 42.8 °F 38.6 °F 39.2 °F 87% 29.94 in 2.0 mi SW 6.9 mph - 0.05 in Rain Rain
10:44 AM 42.8 °F 38.6 °F 39.2 °F 87% 29.90 in 4.0 mi NW 6.9 mph - 0.08 in Rain Rain
10:54 AM 43.0 °F 38.8 °F 39.0 °F 86% 29.92 in 4.0 mi WNW 6.9 mph - 0.08 in Rain Light Rain
11:54 AM 42.8 °F 38.0 °F 39.2 °F 87% 29.89 in 10.0 mi WNW 8.1 mph - N/A   Overcast
12:00 PM 42.8 °F 38.0 °F 39.2 °F 87% 29.87 in 10.0 mi NW 8.1 mph - 0.00 in Rain Light Rain
12:54 PM 44.6 °F 38.8 °F 39.2 °F 81% 29.86 in 8.0 mi WNW 11.5 mph 17.3 mph N/A Rain Light Rain
1:01 PM 42.8 °F 36.2 °F 39.2 °F 87% 29.85 in 10.0 mi WNW 12.7 mph 17.3 mph 0.00 in Rain Light Rain
1:54 PM 45.0 °F 40.1 °F 41.0 °F 86% 29.83 in 10.0 mi NW 9.2 mph - 0.00 in   Overcast
2:54 PM 44.1 °F 37.7 °F 39.9 °F 85% 29.86 in 6.0 mi WNW 12.7 mph 18.4 mph 0.05 in Rain Light Rain
3:32 PM 42.8 °F 36.2 °F 37.4 °F 81% 29.81 in 4.0 mi NW 12.7 mph 21.9 mph 0.05 in Rain Rain
3:54 PM 42.1 °F 35.7 °F 39.0 °F 89% 29.79 in 8.0 mi North 11.5 mph 17.3 mph 0.08 in Rain Light Rain
4:54 PM 44.1 °F 41.5 °F 39.9 °F 85% 29.75 in 10.0 mi North 4.6 mph - 0.00 in Rain Light Rain
5:54 PM 44.1 °F 40.8 °F 39.9 °F 85% 29.79 in 10.0 mi WNW 5.8 mph - 0.01 in Rain Light Rain
6:54 PM 43.0 °F 37.2 °F 39.9 °F 89% 29.76 in 4.0 mi NW 10.4 mph - 0.00 in   Overcast
7:38 PM 44.6 °F 40.2 °F 41.0 °F 87% 29.78 in 7.0 mi West 8.1 mph - N/A   Overcast
7:54 PM 44.1 °F 39.0 °F 41.0 °F 89% 29.80 in 2.5 mi West 9.2 mph - N/A   Overcast
8:09 PM 42.8 °F 38.0 °F 41.0 °F 93% 29.79 in 3.0 mi WNW 8.1 mph - 0.00 in Rain Light Rain
8:54 PM 43.0 °F 38.2 °F 39.9 °F 89% 29.80 in 10.0 mi NW 8.1 mph 16.1 mph 0.00 in   Overcast
9:06 PM 42.8 °F 37.0 °F 39.2 °F 87% 29.79 in 10.0 mi WNW 10.4 mph - 0.00 in Rain Light Rain
9:13 PM 42.8 °F 37.0 °F 39.2 °F 87% 29.79 in 10.0 mi NW 10.4 mph - 0.00 in Rain Light Rain
9:25 PM 42.8 °F 38.6 °F 39.2 °F 87% 29.80 in 8.0 mi WNW 6.9 mph - 0.00 in Rain Light Rain
9:54 PM 42.1 °F 37.7 °F 39.0 °F 89% 29.80 in 10.0 mi WNW 6.9 mph - 0.01 in Rain Light Rain
10:15 PM 42.8 °F 39.3 °F 37.4 °F 81% 29.79 in 10.0 mi NW 5.8 mph - 0.00 in   Overcast
10:50 PM 42.8 °F 38.0 °F 37.4 °F 81% 29.80 in 10.0 mi West 8.1 mph - 0.00 in   Overcast
10:54 PM 42.1 °F 37.1 °F 37.9 °F 85% 29.81 in 10.0 mi WNW 8.1 mph - 0.00 in   Overcast
11:16 PM 41.0 °F 35.2 °F 37.4 °F 87% 29.80 in 4.0 mi West 9.2 mph - N/A   Overcast
11:54 PM 39.9 °F 33.9 °F 37.9 °F 93% 29.80 in 7.0 mi West 9.2 mph - N/A   Overcast